When you browse on this site, cookies collect data to enhance your experience and personalize the content and advertising you see.
Visit our Privacy Policy to learn more. By continuing to use the site, you agree to this use of cookies and data.
  • In Switzerland
  • List of Countries
  • For 7 days
  • Water Temperature
  • Satellite Maps
  • Weather Map
  • Weather Widgets
  • user-avatar
    Login

    Hourly Weather Dreieich

    Today, 27 May, Monday

    Time Temperature Precipitation Wind Pressure Humidity
    00:00 +16°C° 0 mm 2 mps 743 mmHg 74%
    01:00 +16°C° 0 mm 2 mps 743 mmHg 77%
    02:00 +15°C° 0 mm 2 mps 743 mmHg 79%
    03:00 +15°C° 0 mm 2 mps 743 mmHg 81%
    04:00 +14°C° 0 mm 2 mps 742 mmHg 82%
    05:00 +15°C° 0 mm 2 mps 742 mmHg 79%
    06:00 +16°C° 0 mm 2 mps 742 mmHg 77%
    07:00 +16°C° 0 mm 3 mps 742 mmHg 74%
    08:00 +17°C° 0.1 mm 3 mps 742 mmHg 72%
    09:00 +17°C° 0.1 mm 3 mps 742 mmHg 71%
    10:00 +18°C° 0.1 mm 3 mps 742 mmHg 70%
    11:00 +18°C° 0.1 mm 3 mps 742 mmHg 71%
    12:00 +18°C° 0.1 mm 3 mps 742 mmHg 72%
    13:00 +18°C° 0.1 mm 3 mps 741 mmHg 73%
    14:00 +18°C° 0 mm 3 mps 741 mmHg 71%
    15:00 +18°C° 0 mm 2 mps 741 mmHg 70%
    16:00 +19°C° 0 mm 2 mps 740 mmHg 68%
    17:00 +18°C° 0.1 mm 2 mps 740 mmHg 70%
    18:00 +18°C° 0.1 mm 2 mps 740 mmHg 72%
    19:00 +18°C° 0.1 mm 2 mps 740 mmHg 73%
    20:00 +17°C° 0 mm 2 mps 740 mmHg 77%
    21:00 +16°C° 0 mm 1 mps 740 mmHg 80%
    22:00 +15°C° 0 mm 1 mps 741 mmHg 83%
    23:00 +14°C° 0 mm 1 mps 740 mmHg 84%

    Tomorrow, 28 May, Tuesday

    Time Temperature Precipitation Wind Pressure Humidity
    00:00 +14°C° 0 mm 1 mps 740 mmHg 85%
    01:00 +13°C° 0 mm 1 mps 740 mmHg 85%
    02:00 +13°C° 0 mm 1 mps 740 mmHg 85%
    03:00 +13°C° 0 mm 1 mps 740 mmHg 84%
    04:00 +13°C° 0 mm 1 mps 740 mmHg 84%
    05:00 +14°C° 0.1 mm 1 mps 740 mmHg 82%
    06:00 +14°C° 0.1 mm 1 mps 740 mmHg 81%
    07:00 +14°C° 0.1 mm 1 mps 740 mmHg 79%
    08:00 +15°C° 0.4 mm 1 mps 740 mmHg 75%
    09:00 +16°C° 0.4 mm 2 mps 740 mmHg 71%
    10:00 +17°C° 0.4 mm 2 mps 740 mmHg 67%
    11:00 +17°C° 0.2 mm 2 mps 740 mmHg 63%
    12:00 +18°C° 0.2 mm 3 mps 740 mmHg 59%
    13:00 +18°C° 0.2 mm 3 mps 740 mmHg 54%
    14:00 +18°C° 0.3 mm 3 mps 740 mmHg 55%
    15:00 +18°C° 0.3 mm 3 mps 740 mmHg 56%
    16:00 +18°C° 0.3 mm 3 mps 740 mmHg 56%
    17:00 +18°C° 0.4 mm 3 mps 741 mmHg 60%
    18:00 +17°C° 0.4 mm 2 mps 741 mmHg 64%
    19:00 +16°C° 0.4 mm 2 mps 741 mmHg 68%
    20:00 +15°C° 0.3 mm 2 mps 742 mmHg 72%
    21:00 +14°C° 0.3 mm 2 mps 743 mmHg 75%
    22:00 +13°C° 0.3 mm 2 mps 743 mmHg 79%
    23:00 +13°C° 0 mm 2 mps 744 mmHg 81%

    Day after tomorrow, 29 May, Wednesday

    Time Temperature Precipitation Wind Pressure Humidity
    00:00 +12°C° 0 mm 2 mps 744 mmHg 83%
    01:00 +10°C° 0 mm 2 mps 745 mmHg 85%
    02:00 +10°C° 0 mm 2 mps 745 mmHg 85%
    03:00 +9°C° 0 mm 2 mps 745 mmHg 84%
    04:00 +9°C° 0 mm 2 mps 746 mmHg 84%
    05:00 +9°C° 0 mm 2 mps 746 mmHg 81%
    06:00 +10°C° 0 mm 2 mps 747 mmHg 79%
    07:00 +10°C° 0 mm 2 mps 747 mmHg 76%
    08:00 +13°C° 0 mm 1 mps 747 mmHg 70%
    09:00 +15°C° 0 mm 1 mps 748 mmHg 65%
    10:00 +18°C° 0 mm 1 mps 748 mmHg 60%
    11:00 +20°C° 0.1 mm 1 mps 748 mmHg 54%
    12:00 +19°C° 0.1 mm 0 mps 748 mmHg 48%
    13:00 +21°C° 0.1 mm 0 mps 748 mmHg 43%
    14:00 +23°C° 0 mm 1 mps 748 mmHg 42%
    15:00 +23°C° 0 mm 1 mps 747 mmHg 40%
    16:00 +23°C° 0 mm 1 mps 747 mmHg 39%
    17:00 +21°C° 0.1 mm 2 mps 747 mmHg 46%
    18:00 +19°C° 0.1 mm 2 mps 747 mmHg 53%
    19:00 +18°C° 0.1 mm 3 mps 747 mmHg 60%
    20:00 +17°C° 0 mm 3 mps 748 mmHg 64%
    21:00 +16°C° 0 mm 3 mps 748 mmHg 68%
    22:00 +14°C° 0 mm 3 mps 748 mmHg 72%
    23:00 +14°C° 0 mm 3 mps 748 mmHg 74%

    30 May, Thursday

    Time Temperature Precipitation Wind Pressure Humidity
    00:00 +13°C° 0 mm 3 mps 748 mmHg 76%
    01:00 +13°C° 0 mm 3 mps 748 mmHg 78%
    02:00 +13°C° 0.3 mm 3 mps 748 mmHg 80%
    03:00 +13°C° 0.3 mm 4 mps 748 mmHg 83%
    04:00 +13°C° 0.3 mm 4 mps 748 mmHg 85%
    05:00 +13°C° 0.1 mm 4 mps 748 mmHg 86%
    06:00 +13°C° 0.1 mm 4 mps 748 mmHg 86%
    07:00 +13°C° 0.1 mm 3 mps 748 mmHg 87%
    08:00 +14°C° 0.1 mm 3 mps 748 mmHg 85%
    09:00 +16°C° 0.1 mm 3 mps 749 mmHg 83%
    10:00 +17°C° 0.1 mm 3 mps 749 mmHg 81%
    11:00 +18°C° 0.4 mm 3 mps 749 mmHg 78%
    12:00 +18°C° 0.4 mm 3 mps 749 mmHg 75%
    13:00 +19°C° 0.4 mm 3 mps 749 mmHg 73%
    14:00 +19°C° 0.3 mm 3 mps 749 mmHg 75%
    15:00 +18°C° 0.3 mm 3 mps 749 mmHg 77%
    16:00 +18°C° 0.3 mm 4 mps 749 mmHg 79%
    17:00 +18°C° 0.1 mm 3 mps 749 mmHg 78%
    18:00 +18°C° 0.1 mm 3 mps 750 mmHg 77%
    19:00 +18°C° 0.1 mm 3 mps 750 mmHg 76%
    20:00 +18°C° 0 mm 3 mps 750 mmHg 79%
    21:00 +17°C° 0 mm 3 mps 750 mmHg 81%
    22:00 +17°C° 0 mm 3 mps 750 mmHg 84%
    23:00 +16°C° 0.3 mm 3 mps 750 mmHg 85%

    31 May, Friday

    Time Temperature Precipitation Wind Pressure Humidity
    00:00 +16°C° 0.3 mm 3 mps 750 mmHg 87%
    01:00 +16°C° 0.3 mm 3 mps 750 mmHg 88%
    02:00 +14°C° 0.3 mm 3 mps 750 mmHg 89%
    03:00 +14°C° 0.3 mm 3 mps 750 mmHg 89%
    04:00 +14°C° 0.3 mm 3 mps 749 mmHg 90%
    05:00 +14°C° 0.4 mm 3 mps 749 mmHg 89%
    06:00 +14°C° 0.4 mm 3 mps 749 mmHg 89%
    07:00 +14°C° 0.4 mm 4 mps 750 mmHg 89%
    08:00 +16°C° 0.3 mm 3 mps 750 mmHg 86%
    09:00 +16°C° 0.3 mm 3 mps 750 mmHg 84%
    10:00 +17°C° 0.3 mm 3 mps 750 mmHg 82%
    11:00 +18°C° 0.2 mm 4 mps 750 mmHg 74%
    12:00 +20°C° 0.2 mm 4 mps 751 mmHg 65%
    13:00 +21°C° 0.2 mm 4 mps 751 mmHg 57%
    14:00 +21°C° 0.1 mm 5 mps 751 mmHg 55%
    15:00 +20°C° 0.1 mm 5 mps 752 mmHg 54%
    16:00 +20°C° 0.1 mm 5 mps 752 mmHg 52%
    17:00 +19°C° 0 mm 5 mps 752 mmHg 55%
    18:00 +18°C° 0 mm 4 mps 753 mmHg 58%
    19:00 +15°C° 0 mm 4 mps 753 mmHg 61%
    20:00 +14°C° 0 mm 3 mps 754 mmHg 65%
    21:00 +13°C° 0 mm 3 mps 754 mmHg 68%
    22:00 +13°C° 0 mm 2 mps 755 mmHg 71%
    23:00 +12°C° 0 mm 2 mps 755 mmHg 73%

    1 June, Saturday

    Time Temperature Precipitation Wind Pressure Humidity
    00:00 +10°C° 0 mm 2 mps 755 mmHg 76%
    01:00 +9°C° 0 mm 2 mps 756 mmHg 78%
    02:00 +9°C° 0 mm 2 mps 756 mmHg 79%
    03:00 +9°C° 0 mm 1 mps 756 mmHg 80%
    04:00 +9°C° 0 mm 1 mps 756 mmHg 81%
    05:00 +10°C° 0 mm 1 mps 756 mmHg 77%
    06:00 +11°C° 0 mm 1 mps 756 mmHg 72%
    07:00 +12°C° 0 mm 1 mps 756 mmHg 67%
    08:00 +14°C° 0 mm 1 mps 756 mmHg 60%
    09:00 +16°C° 0 mm 1 mps 756 mmHg 53%
    10:00 +17°C° 0 mm 0 mps 756 mmHg 45%
    11:00 +18°C° 0 mm 0 mps 756 mmHg 41%
    12:00 +21°C° 0 mm 1 mps 756 mmHg 37%
    13:00 +23°C° 0 mm 1 mps 755 mmHg 33%
    14:00 +23°C° 0 mm 1 mps 755 mmHg 32%
    15:00 +23°C° 0 mm 1 mps 755 mmHg 32%
    16:00 +23°C° 0 mm 1 mps 754 mmHg 31%
    17:00 +22°C° 0 mm 1 mps 754 mmHg 35%
    18:00 +21°C° 0 mm 1 mps 754 mmHg 39%
    19:00 +20°C° 0 mm 1 mps 754 mmHg 44%
    20:00 +19°C° 0 mm 1 mps 754 mmHg 48%
    21:00 +18°C° 0 mm 1 mps 755 mmHg 52%
    22:00 +15°C° 0 mm 1 mps 755 mmHg 56%
    23:00 +14°C° 0 mm 1 mps 755 mmHg 58%
    Show more